TimeEST,TemperatureF,Dew PointF,Humidity,Sea Level PressureIn,VisibilityMPH,Wind Direction,Wind SpeedMPH,Gust SpeedMPH,PrecipitationIn,Events,Conditions,WindDirDegrees,DateUTC
12:06 AM,30.2,30.2,100,30.40,0.8,Calm,Calm,-,N/A,,Clear,0,2012-11-19 05:06:00
12:13 AM,30.2,28.4,93,30.41,0.5,Calm,Calm,-,N/A,Fog,Light Freezing Fog,0,2012-11-19 05:13:00
12:18 AM,30.2,28.4,93,30.40,1.2,Calm,Calm,-,N/A,,Partly Cloudy,0,2012-11-19 05:18:00
12:22 AM,30.2,28.4,93,30.40,3.0,Calm,Calm,-,N/A,,Partly Cloudy,0,2012-11-19 05:22:00
12:53 AM,30.9,28.9,92,30.42,4.0,Calm,Calm,-,N/A,,Scattered Clouds,0,2012-11-19 05:53:00
12:58 AM,30.2,28.4,93,30.39,1.5,Calm,Calm,-,N/A,,Mostly Cloudy,0,2012-11-19 05:58:00
1:02 AM,30.2,30.2,100,30.39,0.2,Calm,Calm,-,N/A,Fog,Light Freezing Fog,0,2012-11-19 06:02:00
1:36 AM,30.2,28.4,93,30.39,1.0,Calm,Calm,-,N/A,,Mist,0,2012-11-19 06:36:00
1:41 AM,30.2,28.4,93,30.39,0.2,Calm,Calm,-,N/A,Fog,Light Freezing Fog,0,2012-11-19 06:41:00
1:53 AM,30.9,30.0,96,30.41,0.2,Calm,Calm,-,N/A,Fog,Light Freezing Fog,0,2012-11-19 06:53:00
2:02 AM,30.2,30.2,100,30.39,0.2,Calm,Calm,-,N/A,Fog,Light Freezing Fog,0,2012-11-19 07:02:00
2:14 AM,30.2,28.4,93,30.38,1.0,Calm,Calm,-,N/A,,Mist,0,2012-11-19 07:14:00
2:17 AM,28.4,28.4,100,30.38,3.0,Calm,Calm,-,N/A,,Overcast,0,2012-11-19 07:17:00
2:39 AM,30.2,28.4,93,30.38,0.8,Calm,Calm,-,N/A,,Mist,0,2012-11-19 07:39:00
2:49 AM,30.2,30.2,100,30.38,0.2,Calm,Calm,-,N/A,Fog,Light Freezing Fog,0,2012-11-19 07:49:00
2:53 AM,30.9,30.0,96,30.40,0.2,Calm,Calm,-,N/A,Fog,Light Freezing Fog,0,2012-11-19 07:53:00
3:53 AM,32.0,32.0,100,30.39,0.2,Calm,Calm,-,N/A,Fog,Fog,0,2012-11-19 08:53:00
4:53 AM,33.1,33.1,100,30.39,0.2,Calm,Calm,-,N/A,Fog,Fog,0,2012-11-19 09:53:00
5:53 AM,32.0,32.0,100,30.39,0.2,Calm,Calm,-,N/A,Fog,Fog,0,2012-11-19 10:53:00
6:53 AM,30.9,30.9,100,30.39,0.2,Calm,Calm,-,N/A,Fog,Light Freezing Fog,0,2012-11-19 11:53:00
7:53 AM,30.9,30.9,100,30.38,0.1,Calm,Calm,-,N/A,Fog,Light Freezing Fog,0,2012-11-19 12:53:00
8:53 AM,32.0,32.0,100,30.39,0.5,Calm,Calm,-,N/A,Fog,Fog,0,2012-11-19 13:53:00
9:03 AM,33.8,33.8,100,30.36,4.0,Calm,Calm,-,N/A,,Mostly Cloudy,0,2012-11-19 14:03:00
9:10 AM,35.6,35.6,100,30.36,3.0,Calm,Calm,-,N/A,,Mostly Cloudy,0,2012-11-19 14:10:00
9:53 AM,37.0,36.0,96,30.38,7.0,SE,4.6,-,N/A,,Mostly Cloudy,130,2012-11-19 14:53:00
10:53 AM,45.0,37.0,74,30.38,9.0,SE,8.1,-,N/A,,Mostly Cloudy,130,2012-11-19 15:53:00
11:53 AM,48.9,35.1,59,30.35,10.0,SE,6.9,-,N/A,,Mostly Cloudy,140,2012-11-19 16:53:00
12:53 PM,51.1,35.1,54,30.32,10.0,SSE,4.6,-,N/A,,Mostly Cloudy,150,2012-11-19 17:53:00
1:53 PM,53.1,32.0,45,30.29,10.0,ESE,8.1,-,N/A,,Mostly Cloudy,120,2012-11-19 18:53:00
2:53 PM,54.0,28.0,37,30.28,10.0,SSE,9.2,-,N/A,,Overcast,160,2012-11-19 19:53:00
3:53 PM,52.0,28.9,41,30.26,10.0,SSE,6.9,-,N/A,,Overcast,150,2012-11-19 20:53:00
4:53 PM,51.1,30.0,44,30.26,10.0,South,3.5,-,N/A,,Overcast,170,2012-11-19 21:53:00
5:53 PM,48.9,30.9,50,30.25,10.0,SE,5.8,-,N/A,,Overcast,140,2012-11-19 22:53:00
6:53 PM,48.0,32.0,54,30.25,10.0,SSE,4.6,-,N/A,,Overcast,150,2012-11-19 23:53:00
7:53 PM,46.9,33.1,59,30.25,10.0,SE,5.8,-,N/A,,Overcast,140,2012-11-20 00:53:00
8:53 PM,45.0,35.1,68,30.24,10.0,SE,5.8,-,N/A,,Overcast,140,2012-11-20 01:53:00
9:53 PM,44.1,36.0,73,30.22,9.0,SE,3.5,-,N/A,,Overcast,140,2012-11-20 02:53:00
10:53 PM,42.1,35.1,76,30.21,9.0,SSE,3.5,-,N/A,,Mostly Cloudy,160,2012-11-20 03:53:00
11:53 PM,37.9,33.1,83,30.19,8.0,Calm,Calm,-,N/A,,Mostly Cloudy,0,2012-11-20 04:53:00